owner,sensor,date,latitude,longitude,vertical_datum,sea_water_temperature,qcFlag 
DISL,ioos:station:DISL:MBLA:1,2011-03-01T00:02:00Z,30.4367,-88.0117,0.5,16.06,2 
DISL,ioos:station:DISL:MBLA:1,2011-03-01T00:05:00Z,30.4367,-88.0117,0.5,16.19,2 
DISL,ioos:station:DISL:MBLA:1,2011-03-01T00:07:00Z,30.4367,-88.0117,0.5,16.21,2 
DISL,ioos:station:DISL:MBLA:1,2011-03-01T00:10:00Z,30.4367,-88.0117,0.5,16.22,2 
DISL,ioos:station:DISL:MBLA:1,2011-03-01T00:12:00Z,30.4367,-88.0117,0.5,16.24,2 
DISL,ioos:station:DISL:MBLA:1,2011-03-01T00:15:00Z,30.4367,-88.0117,0.5,16.24,2 
DISL,ioos:station:DISL:MBLA:1,2011-03-01T01:03:00Z,30.4367,-88.0117,0.5,16.0,2 
DISL,ioos:station:DISL:MBLA:1,2011-03-01T01:05:00Z,30.4367,-88.0117,0.5,16.11,2 
DISL,ioos:station:DISL:MBLA:1,2011-03-01T01:07:00Z,30.4367,-88.0117,0.5,16.21,2 
DISL,ioos:station:DISL:MBLA:1,2011-03-01T01:10:00Z,30.4367,-88.0117,0.5,16.21,2 
DISL,ioos:station:DISL:MBLA:1,2011-03-01T01:12:00Z,30.4367,-88.0117,0.5,16.2,2 
DISL,ioos:station:DISL:MBLA:1,2011-03-01T01:15:00Z,30.4367,-88.0117,0.5,16.2,2 
DISL,ioos:station:DISL:MBLA:1,2011-03-01T02:03:00Z,30.4367,-88.0117,0.5,16.1,2 
DISL,ioos:station:DISL:MBLA:1,2011-03-01T02:05:00Z,30.4367,-88.0117,0.5,16.28,2 
DISL,ioos:station:DISL:MBLA:1,2011-03-01T02:07:00Z,30.4367,-88.0117,0.5,16.37,2 
DISL,ioos:station:DISL:MBLA:1,2011-03-01T02:10:00Z,30.4367,-88.0117,0.5,16.4,2 
DISL,ioos:station:DISL:MBLA:1,2011-03-01T02:12:00Z,30.4367,-88.0117,0.5,16.42,2 
DISL,ioos:station:DISL:MBLA:1,2011-03-01T02:15:00Z,30.4367,-88.0117,0.5,16.43,2 
DISL,ioos:station:DISL:MBLA:1,2011-03-01T03:03:00Z,30.4367,-88.0117,0.5,15.99,2 
DISL,ioos:station:DISL:MBLA:1,2011-03-01T03:05:00Z,30.4367,-88.0117,0.5,16.17,2 
DISL,ioos:station:DISL:MBLA:1,2011-03-01T03:07:00Z,30.4367,-88.0117,0.5,16.15,2 
DISL,ioos:station:DISL:MBLA:1,2011-03-01T03:10:00Z,30.4367,-88.0117,0.5,16.17,2 
DISL,ioos:station:DISL:MBLA:1,2011-03-01T03:12:00Z,30.4367,-88.0117,0.5,16.17,2 
DISL,ioos:station:DISL:MBLA:1,2011-03-01T03:15:00Z,30.4367,-88.0117,0.5,16.17,2 
DISL,ioos:station:DISL:MBLA:1,2011-03-01T04:03:00Z,30.4367,-88.0117,0.5,15.59,2 
DISL,ioos:station:DISL:MBLA:1,2011-03-01T04:05:00Z,30.4367,-88.0117,0.5,15.89,2 
DISL,ioos:station:DISL:MBLA:1,2011-03-01T04:07:00Z,30.4367,-88.0117,0.5,15.67,2 
DISL,ioos:station:DISL:MBLA:1,2011-03-01T04:10:00Z,30.4367,-88.0117,0.5,16.05,2 
DISL,ioos:station:DISL:MBLA:1,2011-03-01T04:12:00Z,30.4367,-88.0117,0.5,16.23,2 
DISL,ioos:station:DISL:MBLA:1,2011-03-01T04:15:00Z,30.4367,-88.0117,0.5,16.25,2 
DISL,ioos:station:DISL:MBLA:1,2011-03-01T05:03:00Z,30.4367,-88.0117,0.5,14.75,2 
DISL,ioos:station:DISL:MBLA:1,2011-03-01T05:05:00Z,30.4367,-88.0117,0.5,15.47,2 
DISL,ioos:station:DISL:MBLA:1,2011-03-01T05:07:00Z,30.4367,-88.0117,0.5,15.77,2 
DISL,ioos:station:DISL:MBLA:1,2011-03-01T05:10:00Z,30.4367,-88.0117,0.5,15.91,2 
DISL,ioos:station:DISL:MBLA:1,2011-03-01T05:12:00Z,30.4367,-88.0117,0.5,16.1,2 
DISL,ioos:station:DISL:MBLA:1,2011-03-01T05:15:00Z,30.4367,-88.0117,0.5,16.22,2 
DISL,ioos:station:DISL:MBLA:1,2011-03-01T06:03:00Z,30.4367,-88.0117,0.5,15.38,2 
DISL,ioos:station:DISL:MBLA:1,2011-03-01T06:05:00Z,30.4367,-88.0117,0.5,15.54,2 
DISL,ioos:station:DISL:MBLA:1,2011-03-01T06:08:00Z,30.4367,-88.0117,0.5,16.15,2 
DISL,ioos:station:DISL:MBLA:1,2011-03-01T06:10:00Z,30.4367,-88.0117,0.5,16.11,2 
DISL,ioos:station:DISL:MBLA:1,2011-03-01T06:13:00Z,30.4367,-88.0117,0.5,16.18,2 
DISL,ioos:station:DISL:MBLA:1,2011-03-01T06:15:00Z,30.4367,-88.0117,0.5,16.24,2 
DISL,ioos:station:DISL:MBLA:1,2011-03-01T07:03:00Z,30.4367,-88.0117,0.5,15.23,2 
DISL,ioos:station:DISL:MBLA:1,2011-03-01T07:05:00Z,30.4367,-88.0117,0.5,15.73,2 
DISL,ioos:station:DISL:MBLA:1,2011-03-01T07:07:00Z,30.4367,-88.0117,0.5,15.84,2 
DISL,ioos:station:DISL:MBLA:1,2011-03-01T07:10:00Z,30.4367,-88.0117,0.5,15.89,2 
DISL,ioos:station:DISL:MBLA:1,2011-03-01T07:13:00Z,30.4367,-88.0117,0.5,15.89,2 
DISL,ioos:station:DISL:MBLA:1,2011-03-01T07:15:00Z,30.4367,-88.0117,0.5,15.94,2 
DISL,ioos:station:DISL:MBLA:1,2011-03-01T08:03:00Z,30.4367,-88.0117,0.5,15.33,2 
DISL,ioos:station:DISL:MBLA:1,2011-03-01T08:05:00Z,30.4367,-88.0117,0.5,15.53,2 
DISL,ioos:station:DISL:MBLA:1,2011-03-01T08:07:00Z,30.4367,-88.0117,0.5,15.64,2 
DISL,ioos:station:DISL:MBLA:1,2011-03-01T08:10:00Z,30.4367,-88.0117,0.5,15.62,2 
DISL,ioos:station:DISL:MBLA:1,2011-03-01T08:12:00Z,30.4367,-88.0117,0.5,15.65,2 
DISL,ioos:station:DISL:MBLA:1,2011-03-01T08:15:00Z,30.4367,-88.0117,0.5,15.65,2 
DISL,ioos:station:DISL:MBLA:1,2011-03-01T09:03:00Z,30.4367,-88.0117,0.5,15.44,2 
DISL,ioos:station:DISL:MBLA:1,2011-03-01T09:05:00Z,30.4367,-88.0117,0.5,15.55,2 
DISL,ioos:station:DISL:MBLA:1,2011-03-01T09:08:00Z,30.4367,-88.0117,0.5,15.6,2 
DISL,ioos:station:DISL:MBLA:1,2011-03-01T09:11:00Z,30.4367,-88.0117,0.5,15.63,2 
DISL,ioos:station:DISL:MBLA:1,2011-03-01T09:13:00Z,30.4367,-88.0117,0.5,15.66,2 
DISL,ioos:station:DISL:MBLA:1,2011-03-01T09:16:00Z,30.4367,-88.0117,0.5,15.69,2 
DISL,ioos:station:DISL:MBLA:1,2011-03-01T10:03:00Z,30.4367,-88.0117,0.5,15.49,2 
DISL,ioos:station:DISL:MBLA:1,2011-03-01T10:05:00Z,30.4367,-88.0117,0.5,15.58,2 
DISL,ioos:station:DISL:MBLA:1,2011-03-01T10:08:00Z,30.4367,-88.0117,0.5,15.66,2 
DISL,ioos:station:DISL:MBLA:1,2011-03-01T10:10:00Z,30.4367,-88.0117,0.5,15.72,2 
DISL,ioos:station:DISL:MBLA:1,2011-03-01T10:13:00Z,30.4367,-88.0117,0.5,15.74,2 
DISL,ioos:station:DISL:MBLA:1,2011-03-01T10:16:00Z,30.4367,-88.0117,0.5,15.75,2 
DISL,ioos:station:DISL:MBLA:1,2011-03-01T11:03:00Z,30.4367,-88.0117,0.5,15.44,2 
DISL,ioos:station:DISL:MBLA:1,2011-03-01T11:05:00Z,30.4367,-88.0117,0.5,15.61,2 
DISL,ioos:station:DISL:MBLA:1,2011-03-01T11:08:00Z,30.4367,-88.0117,0.5,15.62,2 
DISL,ioos:station:DISL:MBLA:1,2011-03-01T11:10:00Z,30.4367,-88.0117,0.5,15.68,2 
DISL,ioos:station:DISL:MBLA:1,2011-03-01T11:13:00Z,30.4367,-88.0117,0.5,15.69,2 
DISL,ioos:station:DISL:MBLA:1,2011-03-01T11:16:00Z,30.4367,-88.0117,0.5,15.68,2 
DISL,ioos:station:DISL:MBLA:1,2011-03-01T12:03:00Z,30.4367,-88.0117,0.5,15.52,2 
DISL,ioos:station:DISL:MBLA:1,2011-03-01T12:05:00Z,30.4367,-88.0117,0.5,15.6,2 
DISL,ioos:station:DISL:MBLA:1,2011-03-01T12:07:00Z,30.4367,-88.0117,0.5,15.61,2 
DISL,ioos:station:DISL:MBLA:1,2011-03-01T12:10:00Z,30.4367,-88.0117,0.5,15.62,2 
DISL,ioos:station:DISL:MBLA:1,2011-03-01T12:12:00Z,30.4367,-88.0117,0.5,15.61,2 
DISL,ioos:station:DISL:MBLA:1,2011-03-01T12:15:00Z,30.4367,-88.0117,0.5,15.59,2 
DISL,ioos:station:DISL:MBLA:1,2011-03-01T13:03:00Z,30.4367,-88.0117,0.5,15.52,2 
DISL,ioos:station:DISL:MBLA:1,2011-03-01T13:05:00Z,30.4367,-88.0117,0.5,15.54,2 
DISL,ioos:station:DISL:MBLA:1,2011-03-01T13:07:00Z,30.4367,-88.0117,0.5,15.54,2 
DISL,ioos:station:DISL:MBLA:1,2011-03-01T13:10:00Z,30.4367,-88.0117,0.5,15.53,2 
DISL,ioos:station:DISL:MBLA:1,2011-03-01T13:12:00Z,30.4367,-88.0117,0.5,15.52,2 
DISL,ioos:station:DISL:MBLA:1,2011-03-01T13:15:00Z,30.4367,-88.0117,0.5,15.52,2 
DISL,ioos:station:DISL:MBLA:1,2011-03-01T14:03:00Z,30.4367,-88.0117,0.5,15.48,2 
DISL,ioos:station:DISL:MBLA:1,2011-03-01T14:05:00Z,30.4367,-88.0117,0.5,15.47,2 
DISL,ioos:station:DISL:MBLA:1,2011-03-01T14:07:00Z,30.4367,-88.0117,0.5,15.48,2 
DISL,ioos:station:DISL:MBLA:1,2011-03-01T14:11:00Z,30.4367,-88.0117,0.5,15.47,2 
DISL,ioos:station:DISL:MBLA:1,2011-03-01T14:13:00Z,30.4367,-88.0117,0.5,15.47,2 
DISL,ioos:station:DISL:MBLA:1,2011-03-01T14:16:00Z,30.4367,-88.0117,0.5,15.45,2 
DISL,ioos:station:DISL:MBLA:1,2011-03-01T15:02:00Z,30.4367,-88.0117,0.5,15.44,2 
DISL,ioos:station:DISL:MBLA:1,2011-03-01T15:05:00Z,30.4367,-88.0117,0.5,15.45,2 
DISL,ioos:station:DISL:MBLA:1,2011-03-01T15:07:00Z,30.4367,-88.0117,0.5,15.45,2 
DISL,ioos:station:DISL:MBLA:1,2011-03-01T15:10:00Z,30.4367,-88.0117,0.5,15.46,2 
DISL,ioos:station:DISL:MBLA:1,2011-03-01T15:13:00Z,30.4367,-88.0117,0.5,15.46,2 
DISL,ioos:station:DISL:MBLA:1,2011-03-01T15:16:00Z,30.4367,-88.0117,0.5,15.45,2 
DISL,ioos:station:DISL:MBLA:1,2011-03-01T16:03:00Z,30.4367,-88.0117,0.5,15.46,2 
DISL,ioos:station:DISL:MBLA:1,2011-03-01T16:05:00Z,30.4367,-88.0117,0.5,15.48,2 
DISL,ioos:station:DISL:MBLA:1,2011-03-01T16:08:00Z,30.4367,-88.0117,0.5,15.49,2 
DISL,ioos:station:DISL:MBLA:1,2011-03-01T16:10:00Z,30.4367,-88.0117,0.5,15.5,2 
DISL,ioos:station:DISL:MBLA:1,2011-03-01T16:12:00Z,30.4367,-88.0117,0.5,15.51,2 
DISL,ioos:station:DISL:MBLA:1,2011-03-01T16:15:00Z,30.4367,-88.0117,0.5,15.51,2 
DISL,ioos:station:DISL:MBLA:1,2011-03-01T17:02:00Z,30.4367,-88.0117,0.5,15.49,2 
DISL,ioos:station:DISL:MBLA:1,2011-03-01T17:05:00Z,30.4367,-88.0117,0.5,15.52,2 
DISL,ioos:station:DISL:MBLA:1,2011-03-01T17:07:00Z,30.4367,-88.0117,0.5,15.53,2 
DISL,ioos:station:DISL:MBLA:1,2011-03-01T17:10:00Z,30.4367,-88.0117,0.5,15.55,2 
DISL,ioos:station:DISL:MBLA:1,2011-03-01T17:13:00Z,30.4367,-88.0117,0.5,15.57,2 
DISL,ioos:station:DISL:MBLA:1,2011-03-01T17:16:00Z,30.4367,-88.0117,0.5,15.58,2 
DISL,ioos:station:DISL:MBLA:1,2011-03-01T18:03:00Z,30.4367,-88.0117,0.5,15.5,2 
DISL,ioos:station:DISL:MBLA:1,2011-03-01T18:05:00Z,30.4367,-88.0117,0.5,15.56,2 
DISL,ioos:station:DISL:MBLA:1,2011-03-01T18:07:00Z,30.4367,-88.0117,0.5,15.6,2 
DISL,ioos:station:DISL:MBLA:1,2011-03-01T18:10:00Z,30.4367,-88.0117,0.5,15.63,2 
DISL,ioos:station:DISL:MBLA:1,2011-03-01T18:13:00Z,30.4367,-88.0117,0.5,15.69,2 
DISL,ioos:station:DISL:MBLA:1,2011-03-01T18:15:00Z,30.4367,-88.0117,0.5,15.75,2 
DISL,ioos:station:DISL:MBLA:1,2011-03-01T19:02:00Z,30.4367,-88.0117,0.5,15.55,2 
DISL,ioos:station:DISL:MBLA:1,2011-03-01T19:05:00Z,30.4367,-88.0117,0.5,15.57,2 
DISL,ioos:station:DISL:MBLA:1,2011-03-01T19:07:00Z,30.4367,-88.0117,0.5,15.64,2 
DISL,ioos:station:DISL:MBLA:1,2011-03-01T19:10:00Z,30.4367,-88.0117,0.5,15.71,2 
DISL,ioos:station:DISL:MBLA:1,2011-03-01T19:12:00Z,30.4367,-88.0117,0.5,15.77,2 
DISL,ioos:station:DISL:MBLA:1,2011-03-01T19:15:00Z,30.4367,-88.0117,0.5,15.82,2 
DISL,ioos:station:DISL:MBLA:1,2011-03-01T20:02:00Z,30.4367,-88.0117,0.5,15.62,2 
DISL,ioos:station:DISL:MBLA:1,2011-03-01T20:05:00Z,30.4367,-88.0117,0.5,15.66,2 
DISL,ioos:station:DISL:MBLA:1,2011-03-01T20:08:00Z,30.4367,-88.0117,0.5,15.73,2 
DISL,ioos:station:DISL:MBLA:1,2011-03-01T20:10:00Z,30.4367,-88.0117,0.5,15.79,2 
DISL,ioos:station:DISL:MBLA:1,2011-03-01T20:13:00Z,30.4367,-88.0117,0.5,15.86,2 
DISL,ioos:station:DISL:MBLA:1,2011-03-01T20:16:00Z,30.4367,-88.0117,0.5,15.95,2 
DISL,ioos:station:DISL:MBLA:1,2011-03-01T21:02:00Z,30.4367,-88.0117,0.5,15.66,2 
DISL,ioos:station:DISL:MBLA:1,2011-03-01T21:05:00Z,30.4367,-88.0117,0.5,15.7,2 
DISL,ioos:station:DISL:MBLA:1,2011-03-01T21:07:00Z,30.4367,-88.0117,0.5,15.81,2 
DISL,ioos:station:DISL:MBLA:1,2011-03-01T21:10:00Z,30.4367,-88.0117,0.5,15.89,2 
DISL,ioos:station:DISL:MBLA:1,2011-03-01T21:12:00Z,30.4367,-88.0117,0.5,15.93,2 
DISL,ioos:station:DISL:MBLA:1,2011-03-01T21:15:00Z,30.4367,-88.0117,0.5,16.04,2 
DISL,ioos:station:DISL:MBLA:1,2011-03-01T22:02:00Z,30.4367,-88.0117,0.5,15.69,2 
DISL,ioos:station:DISL:MBLA:1,2011-03-01T22:05:00Z,30.4367,-88.0117,0.5,15.81,2 
DISL,ioos:station:DISL:MBLA:1,2011-03-01T22:08:00Z,30.4367,-88.0117,0.5,15.86,2 
DISL,ioos:station:DISL:MBLA:1,2011-03-01T22:11:00Z,30.4367,-88.0117,0.5,15.96,2 
DISL,ioos:station:DISL:MBLA:1,2011-03-01T22:13:00Z,30.4367,-88.0117,0.5,16.02,2 
DISL,ioos:station:DISL:MBLA:1,2011-03-01T22:15:00Z,30.4367,-88.0117,0.5,16.06,2 
DISL,ioos:station:DISL:MBLA:1,2011-03-01T23:02:00Z,30.4367,-88.0117,0.5,15.71,2 
DISL,ioos:station:DISL:MBLA:1,2011-03-01T23:05:00Z,30.4367,-88.0117,0.5,15.74,2 
DISL,ioos:station:DISL:MBLA:1,2011-03-01T23:07:00Z,30.4367,-88.0117,0.5,15.78,2 
DISL,ioos:station:DISL:MBLA:1,2011-03-01T23:10:00Z,30.4367,-88.0117,0.5,15.87,2 
DISL,ioos:station:DISL:MBLA:1,2011-03-01T23:13:00Z,30.4367,-88.0117,0.5,16.0,2 
DISL,ioos:station:DISL:MBLA:1,2011-03-01T23:15:00Z,30.4367,-88.0117,0.5,16.0,2 
DISL,ioos:station:DISL:MBLA:1,2011-03-02T00:02:00Z,30.4367,-88.0117,0.5,15.76,2 
DISL,ioos:station:DISL:MBLA:1,2011-03-02T00:05:00Z,30.4367,-88.0117,0.5,15.78,2 
DISL,ioos:station:DISL:MBLA:1,2011-03-02T00:07:00Z,30.4367,-88.0117,0.5,15.78,2 
DISL,ioos:station:DISL:MBLA:1,2011-03-02T00:10:00Z,30.4367,-88.0117,0.5,15.77,2 
DISL,ioos:station:DISL:MBLA:1,2011-03-02T00:12:00Z,30.4367,-88.0117,0.5,15.87,2 
DISL,ioos:station:DISL:MBLA:1,2011-03-02T00:15:00Z,30.4367,-88.0117,0.5,15.94,2 
DISL,ioos:station:DISL:MBLA:1,2011-03-02T01:03:00Z,30.4367,-88.0117,0.5,15.79,2 
DISL,ioos:station:DISL:MBLA:1,2011-03-02T01:05:00Z,30.4367,-88.0117,0.5,15.78,2 
DISL,ioos:station:DISL:MBLA:1,2011-03-02T01:07:00Z,30.4367,-88.0117,0.5,15.74,2 
DISL,ioos:station:DISL:MBLA:1,2011-03-02T01:10:00Z,30.4367,-88.0117,0.5,15.71,2 
DISL,ioos:station:DISL:MBLA:1,2011-03-02T01:12:00Z,30.4367,-88.0117,0.5,15.73,2 
DISL,ioos:station:DISL:MBLA:1,2011-03-02T01:15:00Z,30.4367,-88.0117,0.5,15.69,2 
DISL,ioos:station:DISL:MBLA:1,2011-03-02T02:02:00Z,30.4367,-88.0117,0.5,15.81,2 
DISL,ioos:station:DISL:MBLA:1,2011-03-02T02:05:00Z,30.4367,-88.0117,0.5,15.78,2 
DISL,ioos:station:DISL:MBLA:1,2011-03-02T02:07:00Z,30.4367,-88.0117,0.5,15.75,2 
DISL,ioos:station:DISL:MBLA:1,2011-03-02T02:10:00Z,30.4367,-88.0117,0.5,15.64,2 
DISL,ioos:station:DISL:MBLA:1,2011-03-02T02:12:00Z,30.4367,-88.0117,0.5,15.54,2 
DISL,ioos:station:DISL:MBLA:1,2011-03-02T02:15:00Z,30.4367,-88.0117,0.5,15.53,2 
DISL,ioos:station:DISL:MBLA:1,2011-03-02T03:03:00Z,30.4367,-88.0117,0.5,15.81,2 
DISL,ioos:station:DISL:MBLA:1,2011-03-02T03:05:00Z,30.4367,-88.0117,0.5,15.76,2 
DISL,ioos:station:DISL:MBLA:1,2011-03-02T03:07:00Z,30.4367,-88.0117,0.5,15.62,2 
DISL,ioos:station:DISL:MBLA:1,2011-03-02T03:10:00Z,30.4367,-88.0117,0.5,15.6,2 
DISL,ioos:station:DISL:MBLA:1,2011-03-02T03:12:00Z,30.4367,-88.0117,0.5,15.46,2 
DISL,ioos:station:DISL:MBLA:1,2011-03-02T03:15:00Z,30.4367,-88.0117,0.5,15.44,2 
DISL,ioos:station:DISL:MBLA:1,2011-03-02T04:03:00Z,30.4367,-88.0117,0.5,15.6,2 
DISL,ioos:station:DISL:MBLA:1,2011-03-02T04:05:00Z,30.4367,-88.0117,0.5,15.71,2 
DISL,ioos:station:DISL:MBLA:1,2011-03-02T04:08:00Z,30.4367,-88.0117,0.5,15.57,2 
DISL,ioos:station:DISL:MBLA:1,2011-03-02T04:10:00Z,30.4367,-88.0117,0.5,15.48,2 
DISL,ioos:station:DISL:MBLA:1,2011-03-02T04:13:00Z,30.4367,-88.0117,0.5,15.43,2 
DISL,ioos:station:DISL:MBLA:1,2011-03-02T04:15:00Z,30.4367,-88.0117,0.5,15.43,2 
DISL,ioos:station:DISL:MBLA:1,2011-03-02T05:02:00Z,30.4367,-88.0117,0.5,15.65,2 
DISL,ioos:station:DISL:MBLA:1,2011-03-02T05:05:00Z,30.4367,-88.0117,0.5,15.54,2 
DISL,ioos:station:DISL:MBLA:1,2011-03-02T05:07:00Z,30.4367,-88.0117,0.5,15.46,2 
DISL,ioos:station:DISL:MBLA:1,2011-03-02T05:10:00Z,30.4367,-88.0117,0.5,15.42,2 
DISL,ioos:station:DISL:MBLA:1,2011-03-02T05:12:00Z,30.4367,-88.0117,0.5,15.39,2 
DISL,ioos:station:DISL:MBLA:1,2011-03-02T05:15:00Z,30.4367,-88.0117,0.5,15.39,2 
DISL,ioos:station:DISL:MBLA:1,2011-03-02T06:03:00Z,30.4367,-88.0117,0.5,15.49,2 
DISL,ioos:station:DISL:MBLA:1,2011-03-02T06:05:00Z,30.4367,-88.0117,0.5,15.43,2 
DISL,ioos:station:DISL:MBLA:1,2011-03-02T06:07:00Z,30.4367,-88.0117,0.5,15.41,2 
DISL,ioos:station:DISL:MBLA:1,2011-03-02T06:10:00Z,30.4367,-88.0117,0.5,15.39,2 
DISL,ioos:station:DISL:MBLA:1,2011-03-02T06:13:00Z,30.4367,-88.0117,0.5,15.39,2 
DISL,ioos:station:DISL:MBLA:1,2011-03-02T06:15:00Z,30.4367,-88.0117,0.5,15.37,2 
DISL,ioos:station:DISL:MBLA:1,2011-03-02T07:03:00Z,30.4367,-88.0117,0.5,15.39,2 
DISL,ioos:station:DISL:MBLA:1,2011-03-02T07:05:00Z,30.4367,-88.0117,0.5,15.38,2 
DISL,ioos:station:DISL:MBLA:1,2011-03-02T07:07:00Z,30.4367,-88.0117,0.5,15.36,2 
DISL,ioos:station:DISL:MBLA:1,2011-03-02T07:10:00Z,30.4367,-88.0117,0.5,15.36,2 
DISL,ioos:station:DISL:MBLA:1,2011-03-02T07:12:00Z,30.4367,-88.0117,0.5,15.35,2 
DISL,ioos:station:DISL:MBLA:1,2011-03-02T07:15:00Z,30.4367,-88.0117,0.5,15.34,2 
DISL,ioos:station:DISL:MBLA:1,2011-03-02T08:03:00Z,30.4367,-88.0117,0.5,15.44,2 
DISL,ioos:station:DISL:MBLA:1,2011-03-02T08:05:00Z,30.4367,-88.0117,0.5,15.39,2 
DISL,ioos:station:DISL:MBLA:1,2011-03-02T08:07:00Z,30.4367,-88.0117,0.5,15.35,2 
DISL,ioos:station:DISL:MBLA:1,2011-03-02T08:10:00Z,30.4367,-88.0117,0.5,15.34,2 
DISL,ioos:station:DISL:MBLA:1,2011-03-02T08:12:00Z,30.4367,-88.0117,0.5,15.34,2 
DISL,ioos:station:DISL:MBLA:1,2011-03-02T08:15:00Z,30.4367,-88.0117,0.5,15.34,2 
DISL,ioos:station:DISL:MBLA:1,2011-03-02T09:03:00Z,30.4367,-88.0117,0.5,15.35,2 
DISL,ioos:station:DISL:MBLA:1,2011-03-02T09:05:00Z,30.4367,-88.0117,0.5,15.34,2 
DISL,ioos:station:DISL:MBLA:1,2011-03-02T09:07:00Z,30.4367,-88.0117,0.5,15.34,2 
DISL,ioos:station:DISL:MBLA:1,2011-03-02T09:10:00Z,30.4367,-88.0117,0.5,15.32,2 
DISL,ioos:station:DISL:MBLA:1,2011-03-02T09:12:00Z,30.4367,-88.0117,0.5,15.31,2 
DISL,ioos:station:DISL:MBLA:1,2011-03-02T09:15:00Z,30.4367,-88.0117,0.5,15.28,2 
DISL,ioos:station:DISL:MBLA:1,2011-03-02T10:03:00Z,30.4367,-88.0117,0.5,15.23,2 
DISL,ioos:station:DISL:MBLA:1,2011-03-02T10:05:00Z,30.4367,-88.0117,0.5,15.25,2 
DISL,ioos:station:DISL:MBLA:1,2011-03-02T10:07:00Z,30.4367,-88.0117,0.5,15.22,2 
DISL,ioos:station:DISL:MBLA:1,2011-03-02T10:10:00Z,30.4367,-88.0117,0.5,15.25,2 
DISL,ioos:station:DISL:MBLA:1,2011-03-02T10:12:00Z,30.4367,-88.0117,0.5,15.24,2 
DISL,ioos:station:DISL:MBLA:1,2011-03-02T10:15:00Z,30.4367,-88.0117,0.5,15.23,2 
DISL,ioos:station:DISL:MBLA:1,2011-03-02T11:03:00Z,30.4367,-88.0117,0.5,15.19,2 
DISL,ioos:station:DISL:MBLA:1,2011-03-02T11:05:00Z,30.4367,-88.0117,0.5,15.19,2 
DISL,ioos:station:DISL:MBLA:1,2011-03-02T11:07:00Z,30.4367,-88.0117,0.5,15.17,2 
DISL,ioos:station:DISL:MBLA:1,2011-03-02T11:10:00Z,30.4367,-88.0117,0.5,15.16,2 
DISL,ioos:station:DISL:MBLA:1,2011-03-02T11:12:00Z,30.4367,-88.0117,0.5,15.15,2 
DISL,ioos:station:DISL:MBLA:1,2011-03-02T11:15:00Z,30.4367,-88.0117,0.5,15.14,2 
DISL,ioos:station:DISL:MBLA:1,2011-03-02T12:03:00Z,30.4367,-88.0117,0.5,15.12,2 
DISL,ioos:station:DISL:MBLA:1,2011-03-02T12:05:00Z,30.4367,-88.0117,0.5,15.11,2 
DISL,ioos:station:DISL:MBLA:1,2011-03-02T12:07:00Z,30.4367,-88.0117,0.5,15.08,2 
DISL,ioos:station:DISL:MBLA:1,2011-03-02T12:10:00Z,30.4367,-88.0117,0.5,15.07,2 
DISL,ioos:station:DISL:MBLA:1,2011-03-02T12:12:00Z,30.4367,-88.0117,0.5,15.05,2 
DISL,ioos:station:DISL:MBLA:1,2011-03-02T12:15:00Z,30.4367,-88.0117,0.5,15.04,2 
DISL,ioos:station:DISL:MBLA:1,2011-03-02T13:03:00Z,30.4367,-88.0117,0.5,15.05,2 
DISL,ioos:station:DISL:MBLA:1,2011-03-02T13:05:00Z,30.4367,-88.0117,0.5,15.02,2 
DISL,ioos:station:DISL:MBLA:1,2011-03-02T13:07:00Z,30.4367,-88.0117,0.5,14.99,2 
DISL,ioos:station:DISL:MBLA:1,2011-03-02T13:10:00Z,30.4367,-88.0117,0.5,15.0,2 
DISL,ioos:station:DISL:MBLA:1,2011-03-02T13:12:00Z,30.4367,-88.0117,0.5,14.99,2 
DISL,ioos:station:DISL:MBLA:1,2011-03-02T13:15:00Z,30.4367,-88.0117,0.5,15.01,2 
DISL,ioos:station:DISL:MBLA:1,2011-03-02T14:02:00Z,30.4367,-88.0117,0.5,15.0,2 
DISL,ioos:station:DISL:MBLA:1,2011-03-02T14:05:00Z,30.4367,-88.0117,0.5,14.98,2 
DISL,ioos:station:DISL:MBLA:1,2011-03-02T14:07:00Z,30.4367,-88.0117,0.5,14.98,2 
DISL,ioos:station:DISL:MBLA:1,2011-03-02T14:10:00Z,30.4367,-88.0117,0.5,14.98,2 
DISL,ioos:station:DISL:MBLA:1,2011-03-02T14:12:00Z,30.4367,-88.0117,0.5,14.99,2 
DISL,ioos:station:DISL:MBLA:1,2011-03-02T14:15:00Z,30.4367,-88.0117,0.5,14.98,2 
DISL,ioos:station:DISL:MBLA:1,2011-03-02T15:02:00Z,30.4367,-88.0117,0.5,14.95,2 
DISL,ioos:station:DISL:MBLA:1,2011-03-02T15:05:00Z,30.4367,-88.0117,0.5,14.99,2 
DISL,ioos:station:DISL:MBLA:1,2011-03-02T15:07:00Z,30.4367,-88.0117,0.5,15.0,2 
DISL,ioos:station:DISL:MBLA:1,2011-03-02T15:10:00Z,30.4367,-88.0117,0.5,15.0,2 
DISL,ioos:station:DISL:MBLA:1,2011-03-02T15:12:00Z,30.4367,-88.0117,0.5,15.0,2 
DISL,ioos:station:DISL:MBLA:1,2011-03-02T15:15:00Z,30.4367,-88.0117,0.5,15.01,2 
DISL,ioos:station:DISL:MBLA:1,2011-03-02T16:03:00Z,30.4367,-88.0117,0.5,14.97,2 
DISL,ioos:station:DISL:MBLA:1,2011-03-02T16:05:00Z,30.4367,-88.0117,0.5,15.02,2 
DISL,ioos:station:DISL:MBLA:1,2011-03-02T16:07:00Z,30.4367,-88.0117,0.5,15.04,2 
DISL,ioos:station:DISL:MBLA:1,2011-03-02T16:10:00Z,30.4367,-88.0117,0.5,15.06,2 
DISL,ioos:station:DISL:MBLA:1,2011-03-02T16:13:00Z,30.4367,-88.0117,0.5,15.06,2 
DISL,ioos:station:DISL:MBLA:1,2011-03-02T16:15:00Z,30.4367,-88.0117,0.5,15.07,2 
DISL,ioos:station:DISL:MBLA:1,2011-03-02T17:02:00Z,30.4367,-88.0117,0.5,14.92,2 
DISL,ioos:station:DISL:MBLA:1,2011-03-02T17:05:00Z,30.4367,-88.0117,0.5,14.96,2 
DISL,ioos:station:DISL:MBLA:1,2011-03-02T17:07:00Z,30.4367,-88.0117,0.5,14.99,2 
DISL,ioos:station:DISL:MBLA:1,2011-03-02T17:10:00Z,30.4367,-88.0117,0.5,15.05,2 
DISL,ioos:station:DISL:MBLA:1,2011-03-02T17:13:00Z,30.4367,-88.0117,0.5,15.12,2 
DISL,ioos:station:DISL:MBLA:1,2011-03-02T17:15:00Z,30.4367,-88.0117,0.5,15.19,2 
DISL,ioos:station:DISL:MBLA:1,2011-03-02T18:03:00Z,30.4367,-88.0117,0.5,14.97,2 
DISL,ioos:station:DISL:MBLA:1,2011-03-02T18:05:00Z,30.4367,-88.0117,0.5,15.03,2 
DISL,ioos:station:DISL:MBLA:1,2011-03-02T18:08:00Z,30.4367,-88.0117,0.5,15.03,2 
DISL,ioos:station:DISL:MBLA:1,2011-03-02T18:10:00Z,30.4367,-88.0117,0.5,15.12,2 
DISL,ioos:station:DISL:MBLA:1,2011-03-02T18:13:00Z,30.4367,-88.0117,0.5,15.23,2 
DISL,ioos:station:DISL:MBLA:1,2011-03-02T18:15:00Z,30.4367,-88.0117,0.5,15.31,2 
DISL,ioos:station:DISL:MBLA:1,2011-03-02T19:03:00Z,30.4367,-88.0117,0.5,15.07,2 
DISL,ioos:station:DISL:MBLA:1,2011-03-02T19:05:00Z,30.4367,-88.0117,0.5,15.12,2 
DISL,ioos:station:DISL:MBLA:1,2011-03-02T19:08:00Z,30.4367,-88.0117,0.5,15.28,2 
DISL,ioos:station:DISL:MBLA:1,2011-03-02T19:10:00Z,30.4367,-88.0117,0.5,15.39,2 
DISL,ioos:station:DISL:MBLA:1,2011-03-02T19:13:00Z,30.4367,-88.0117,0.5,15.41,2 
DISL,ioos:station:DISL:MBLA:1,2011-03-02T19:16:00Z,30.4367,-88.0117,0.5,15.38,2 
DISL,ioos:station:DISL:MBLA:1,2011-03-02T20:02:00Z,30.4367,-88.0117,0.5,14.96,2 
DISL,ioos:station:DISL:MBLA:1,2011-03-02T20:05:00Z,30.4367,-88.0117,0.5,15.09,2 
DISL,ioos:station:DISL:MBLA:1,2011-03-02T20:08:00Z,30.4367,-88.0117,0.5,15.16,2 
DISL,ioos:station:DISL:MBLA:1,2011-03-02T20:10:00Z,30.4367,-88.0117,0.5,15.2,2 
DISL,ioos:station:DISL:MBLA:1,2011-03-02T20:13:00Z,30.4367,-88.0117,0.5,15.22,2 
DISL,ioos:station:DISL:MBLA:1,2011-03-02T20:15:00Z,30.4367,-88.0117,0.5,15.2,2 
DISL,ioos:station:DISL:MBLA:1,2011-03-02T21:02:00Z,30.4367,-88.0117,0.5,15.05,2 
DISL,ioos:station:DISL:MBLA:1,2011-03-02T21:05:00Z,30.4367,-88.0117,0.5,15.16,2 
DISL,ioos:station:DISL:MBLA:1,2011-03-02T21:07:00Z,30.4367,-88.0117,0.5,15.26,2 
DISL,ioos:station:DISL:MBLA:1,2011-03-02T21:10:00Z,30.4367,-88.0117,0.5,15.27,2 
DISL,ioos:station:DISL:MBLA:1,2011-03-02T21:12:00Z,30.4367,-88.0117,0.5,15.26,2 
DISL,ioos:station:DISL:MBLA:1,2011-03-02T21:15:00Z,30.4367,-88.0117,0.5,15.26,2 
DISL,ioos:station:DISL:MBLA:1,2011-03-02T22:02:00Z,30.4367,-88.0117,0.5,15.04,2 
DISL,ioos:station:DISL:MBLA:1,2011-03-02T22:05:00Z,30.4367,-88.0117,0.5,15.14,2 
DISL,ioos:station:DISL:MBLA:1,2011-03-02T22:07:00Z,30.4367,-88.0117,0.5,15.27,2 
DISL,ioos:station:DISL:MBLA:1,2011-03-02T22:10:00Z,30.4367,-88.0117,0.5,15.28,2 
DISL,ioos:station:DISL:MBLA:1,2011-03-02T22:12:00Z,30.4367,-88.0117,0.5,15.27,2 
DISL,ioos:station:DISL:MBLA:1,2011-03-02T22:15:00Z,30.4367,-88.0117,0.5,15.27,2 
DISL,ioos:station:DISL:MBLA:1,2011-03-02T23:03:00Z,30.4367,-88.0117,0.5,14.99,2 
DISL,ioos:station:DISL:MBLA:1,2011-03-02T23:05:00Z,30.4367,-88.0117,0.5,15.35,2 
DISL,ioos:station:DISL:MBLA:1,2011-03-02T23:08:00Z,30.4367,-88.0117,0.5,15.34,2 
DISL,ioos:station:DISL:MBLA:1,2011-03-02T23:10:00Z,30.4367,-88.0117,0.5,15.32,2 
DISL,ioos:station:DISL:MBLA:1,2011-03-02T23:13:00Z,30.4367,-88.0117,0.5,15.3,2 
DISL,ioos:station:DISL:MBLA:1,2011-03-02T23:15:00Z,30.4367,-88.0117,0.5,15.29,2 
DISL,ioos:station:DISL:MBLA:1,2011-03-03T00:02:00Z,30.4367,-88.0117,0.5,15.22,2 
DISL,ioos:station:DISL:MBLA:1,2011-03-03T00:05:00Z,30.4367,-88.0117,0.5,15.34,2 
DISL,ioos:station:DISL:MBLA:1,2011-03-03T00:07:00Z,30.4367,-88.0117,0.5,15.47,2 
DISL,ioos:station:DISL:MBLA:1,2011-03-03T00:10:00Z,30.4367,-88.0117,0.5,15.46,2 
DISL,ioos:station:DISL:MBLA:1,2011-03-03T00:12:00Z,30.4367,-88.0117,0.5,15.43,2 
DISL,ioos:station:DISL:MBLA:1,2011-03-03T00:15:00Z,30.4367,-88.0117,0.5,15.4,2 
DISL,ioos:station:DISL:MBLA:1,2011-03-03T01:03:00Z,30.4367,-88.0117,0.5,15.36,2 